Regional Weather Roundup
Issued by NWS

Home | Current Version | Previous Version | Text Only | Print | Product List | Glossary On
Versions: 1 2 3 4 5 6 7 8 9 10 11 12 13 14 15 16 17 18 19 20 21 22 23 24 25 26 27 28 29 30 31 32 33 34 35 36 37 38 39 40 41 42 43 44 45 46 47 48 49 50
195
ASCA44 KEWX 201020
RWRMX

LATIN AMERICA AND CARIBBEAN REGIONAL WEATHER ROUNDUP
NATIONAL WEATHER SERVICE AUSTIN/SAN ANTONIO TX
400 AM CST TUE FEB 20 2018

NOTE: "FAIR" INDICATED FEW OR NO CLOUDS BELOW 12,000 FEET WITH NO
SIGNIFICANT WEATHER AND/OR OBSTRUCTIONS TO VISIBILITY.

BAJA CALIFORNIA

CITY           SKY/WX    TMP DP  RH WIND       PRES   REMARKS
S.J. DEL CABO    N/A    N/A N/A N/A MISG        N/A
TIJUANA        PTCLDY    43  34  70 CALM      30.09R

NORTHWESTERN MEXICO

CITY           SKY/WX    TMP DP  RH WIND       PRES   REMARKS
CULIACAN       PTCLDY    64  64 100 CALM      29.96
HERMOSILLO     CLOUDY    59  48  67 NW5       29.99

NORTHEASTERN MEXICO

CITY           SKY/WX    TMP DP  RH WIND       PRES   REMARKS
MONCLOVA         N/A    N/A N/A N/A MISG        N/A
MONTERREY      CLOUDY    68  63  83 E5        29.81S
REYNOSA          N/A    N/A N/A N/A MISG        N/A
CD. VICTORIA     N/A    N/A N/A N/A MISG        N/A

WESTERN MEXICO

CITY           SKY/WX    TMP DP  RH WIND       PRES   REMARKS
AGUASCALIENTES   N/A    N/A N/A N/A MISG        N/A
COLIMA           N/A    N/A N/A N/A MISG        N/A
DEL BAJIO      MOCLDY    55  45  67 NW5       30.24S
GUADALAJARA    PTCLDY    52  45  76 CALM      30.14
MAZATLAN       MOCLDY    66  57  72 CALM      29.92S
P. VALLARTA    MOCLDY    70  70 100 CALM      29.92R
URUAPAN          N/A    N/A N/A N/A MISG        N/A
ZACATECAS      CLOUDY    54  37  54 SW9       30.18

CENTRAL MEXICO

CITY           SKY/WX    TMP DP  RH WIND       PRES   REMARKS
CUERNAVACA       N/A    N/A N/A N/A MISG        N/A
MEXICO CITY    MOCLDY    57  43  58 E6        30.23S
MORELIA        CLEAR     52  45  76 CALM      30.18
POZA RICA        N/A    N/A N/A N/A MISG        N/A
S. LUIS POTOSI MOCLDY    54  46  76 CALM      30.15
TOLUCA         PTCLDY    45  39  81 NW5       30.30  WCI  42

SOUTHERN MEXICO

CITY           SKY/WX    TMP DP  RH WIND       PRES   REMARKS
ACAPULCO       CLEAR     75  72  88 NE3       29.90S
B. DE HUATULCO   N/A    N/A N/A N/A MISG        N/A
P. ESCONDIDO     N/A    N/A N/A N/A MISG        N/A
VERACRUZ         N/A    N/A N/A N/A MISG        N/A

YUCATAN PENINSULA

CITY           SKY/WX    TMP DP  RH WIND       PRES   REMARKS
CAMPECHE       CLEAR     73  72  94 E12       29.92
CANCUN         PTCLDY    79  70  73 E12       30.05S
CHETUMAL       PTCLDY    79  72  78 E9        29.97
CD. DEL CARMEN   N/A    N/A N/A N/A MISG        N/A
COZUMEL        PTCLDY    77  72  83 E8        30.02S
MERIDA         CLEAR     73  70  88 E13       30.00S
MINATITLAN     CLEAR     75  72  88 CALM      29.84
TAPACHULA      PTCLDY    68  68 100 CALM      29.88S

CENTRAL AMERICA

CITY           SKY/WX    TMP DP  RH WIND       PRES   REMARKS

CARIBBEAN

CITY           SKY/WX    TMP DP  RH WIND       PRES   REMARKS
CURACAO        LGT RAIN  77  68  73 E16G29    29.97S
KINGSTON       PTCLDY    77  68  73 NW8       30.03S
NASSAU         PTCLDY    79  66  65 E6        30.26R
SAN JUAN       MOCLDY    73  72  94 E10       30.14R
SANTO DOMINGO  PTCLDY    70  68  94 N7        30.12S
ST. CROIX      CLEAR     75  66  73 NE14G23   30.11
ST. KITTS      PTCLDY    75  68  78 NE15      30.09
ST. MAARTEN    PTCLDY    75  61  60 E14       30.09S
ST. THOMAS     PTCLDY    73  72  94 E14       30.12

$$





USA.gov is the U.S. government's official web portal to all federal, state and local government web resources and services.